Regional Weather Roundup
Issued by NWS Little Rock, AR

Home | Current Version | Previous Version | Graphics & Text | Print | Product List | Glossary On
Versions: 1 2 3 4 5 6 7 8 9 10 11 12 13 14 15 16 17 18 19 20 21 22 23 24 25 26 27 28 29 30 31 32 33 34 35 36 37 38 39 40 41 42 43 44 45 46 47 48 49 50
547
ASUS44 KLZK 211812
RWRLZK

WEATHER ROUNDUP FOR ARKANSAS
NATIONAL WEATHER SERVICE LITTLE ROCK AR
100 PM CDT FRI JUL 21 2017

NOTE: "FAIR" INDICATES FEW OR NO CLOUDS BELOW 12,000 FEET WITH NO
SIGNIFICANT WEATHER AND/OR OBSTRUCTIONS TO VISIBILITY.

ARZ001-003-010-029-211900-
NORTHWEST ARKANSAS

CITY           SKY/WX    TMP DP  RH WIND       PRES   REMARKS
FAYETTEVILLE   MOSUNNY   88  72  58 SW13      30.05F HX  94
6HR MIN TEMP:  71; 6HR MAX TEMP:  90;

FORT SMITH     SUNNY     94  73  50 VRB7G20   30.00F HX 103
6HR MIN TEMP:  79; 6HR MAX TEMP:  95;

HARRISON       MOSUNNY   90  73  57 S7        30.06F HX  98
6HR MIN TEMP:  74; 6HR MAX TEMP:  92;

BENTONVILLE    SUNNY     91  72  52 SW8       30.06S HX  98
6HR MIN TEMP:  75; 6HR MAX TEMP:  91;

ROGERS         SUNNY     91  71  51 W8        30.05F HX  97
6HR MIN TEMP:  77; 6HR MAX TEMP:  92; 6HR PCP: TRACE;

SILOAM SPGS    SUNNY     91  72  52 S13       30.03F HX  98
6HR MIN TEMP:  73; 6HR MAX TEMP:  91;

HIGHFILL       MOSUNNY   93  72  50 S13       30.04F HX 101
6HR MIN TEMP:  74; 6HR MAX TEMP:  93;

SPRINGDALE     MOSUNNY   91  70  49 SW12      30.06F HX  97
$$

ARZ004-005-016-211900-
NORTH CENTRAL ARKANSAS

CITY           SKY/WX    TMP DP  RH WIND       PRES   REMARKS
BATESVILLE     MOSUNNY   95  75  52 SW9       30.02S HX 107
6HR MIN TEMP:  79; 6HR MAX TEMP:  95;

FLIPPIN        SUNNY     93  70  46 S6        30.01S HX  99
6HR MIN TEMP:  73; 6HR MAX TEMP:  93;

$$

ARZ040-041-211900-
WEST CENTRAL ARKANSAS

CITY           SKY/WX    TMP DP  RH WIND       PRES   REMARKS
MENA           MOSUNNY   95  72  46 S6        30.06F HX 103
MOUNT IDA      MOSUNNY   93  68  43 VRB6      30.02F HX  97
6HR MIN TEMP:  74; 6HR MAX TEMP:  94;

$$

ARZ009-017-025-026-028-211900-
NORTHEAST ARKANSAS

CITY           SKY/WX    TMP DP  RH WIND       PRES   REMARKS
CORNING        LGT RAIN  93  81  66 S6        30.01S HX 113
JONESBORO      CLOUDY    93  76  57 SW5       30.01S HX 105
6HR MIN TEMP:  81; 6HR MAX TEMP:  95;

WALNUT RIDGE   SUNNY     97  73  46 CALM      30.00F HX 107
6HR MIN TEMP:  79; 6HR MAX TEMP:  97;

BLYTHEVILLE    SUNNY     94  76  55 VRB5      30.01F HX 106
6HR MIN TEMP:  80; 6HR MAX TEMP:  95;

$$

ARZ022-023-033-042-044-211900-
CENTRAL ARKANSAS

CITY           SKY/WX    TMP DP  RH WIND       PRES   REMARKS
LITTLE ROCK    PTSUNNY   94  76  55 S9        30.01F HX 106
6HR MIN TEMP:  78; 6HR MAX TEMP:  95;

N LITTLE ROCK    N/A     91  76  59 W3        30.00F HX 103
6HR MIN TEMP:  80; 6HR MAX TEMP:  93;

JACKSONVILLE   MOSUNNY   93  74  54 W5        30.01F HX 104
6HR MIN TEMP:  77; 6HR MAX TEMP:  96;

CONWAY           N/A     93  75  55 CALM      29.99F HX 104
SEARCY         MOSUNNY   95  78  58 S6        30.03  HX 111
6HR MIN TEMP:  76; 6HR MAX TEMP:  95;

HOT SPRINGS    PTSUNNY   94  74  52 VRB6      30.03F HX 104
6HR MIN TEMP:  77; 6HR MAX TEMP:  95;

CLINTON        FAIR      93  75  55 SW7       30.02F HX 104
$$

ARZ036-211900-
EAST ARKANSAS

CITY           SKY/WX    TMP DP  RH WIND       PRES   REMARKS
$$

ARZ050-053-066-070-073-211900-
SOUTHWEST ARKANSAS

CITY           SKY/WX    TMP DP  RH WIND       PRES   REMARKS
ARKADELPHIA    FAIR      93  78  61 VRB6      30.02F HX 108
6HR MIN TEMP:  76; 6HR MAX TEMP:  94;

CAMDEN         MOSUNNY   95  73  49 S5        30.01F HX 105
TEXARKANA      SUNNY     94  71  47 VRB7      30.03F HX 101
6HR MIN TEMP:  77; 6HR MAX TEMP:  94;

EL DORADO      SUNNY     94  73  50 S5        30.03F HX 103
6HR MIN TEMP:  77; 6HR MAX TEMP:  95;

DE QUEEN       SUNNY     94  75  54 SW7       30.00F HX 105
6HR MIN TEMP:  75; 6HR MAX TEMP:  94;

$$

ARZ056-057-069-211900-
SOUTHEAST ARKANSAS

CITY           SKY/WX    TMP DP  RH WIND       PRES   REMARKS
PINE BLUFF     SUNNY     93  74  53 MISG      30.02F HX 103
6HR MIN TEMP:  77; 6HR MAX TEMP:  94;

STUTTGART      MOSUNNY   97  68  38 SW7       30.03S HX 101
6HR MIN TEMP:  81; 6HR MAX TEMP:  97;

MONTICELLO     CLOUDY    91  77  63 CALM      30.02F HX 104
6HR MIN TEMP:  79; 6HR MAX TEMP:  95;


$$






USA.gov is the U.S. government's official web portal to all federal, state and local government web resources and services.